Date String (YYYY-MM-DD hh:mm:ss) UTC,Instrument flags,Ambient pressure (hPa),Sample flow (lpm),Bypass flow (lpm),Sample temperature (°C),Ambient temperature (°C),ASC tube jacket temperature (°C),LED temperature (°C),Box temperature (°C),Sample RH (%),Span deviation,Mass concentration (μg/m³),Mass concentration (μg/m³),Mass concentration (μg/m³)
DateTimeUTC,F1_M11,P_M11,Q1_M11,Q2_M11,T1_M11,T2_M11,T3_M11,T4_M11,T5_M11,U1_M11,ZSPAN_M11,X0_M11,X2_M11,X1_M11
2023-02-20 14:00:00,,0814.7,5.00,0.00,22.2,20.4,00.0,31.2,23.8,10.1,0000.0,0006.00,0001.43,0000.70
2023-02-20 14:01:00,,0815.4,4.99,0.00,22.2,20.9,00.0,31.1,24.0,10.1,0000.0,0005.74,0001.40,0000.70
2023-02-20 14:02:00,,0815.8,5.00,0.00,22.3,22.3,00.0,31.1,24.3,10.1,0000.0,0005.58,0001.35,0000.71
2023-02-20 14:03:00,,0815.7,5.02,0.00,22.5,22.9,00.0,31.1,24.5,10.3,0000.0,0007.25,0001.39,0000.73
2023-02-20 14:04:00,,0815.0,5.01,0.00,22.5,22.5,00.0,31.2,24.4,10.0,0000.0,0007.95,0001.42,0000.75
2023-02-20 14:05:00,,0815.2,4.98,0.00,22.5,22.1,00.0,31.2,24.4,10.0,0000.0,0009.15,0001.55,0000.77
2023-02-20 14:06:00,,0814.7,5.01,0.00,22.5,21.7,00.0,31.3,24.3,10.0,0000.0,0009.62,0001.76,0000.79
2023-02-20 14:07:00,,0814.9,5.00,0.00,22.5,21.4,00.0,31.3,24.2,10.1,0000.0,0015.39,0003.22,0000.92
2023-02-20 14:08:00,,0814.9,5.00,0.00,22.4,21.1,00.0,31.3,24.1,10.0,0000.0,0019.54,0003.67,0000.99
2023-02-20 14:09:00,,0815.1,5.00,0.00,22.4,20.9,00.0,31.3,24.1,10.0,0000.0,0024.55,0004.21,0001.07
2023-02-20 14:10:00,,0815.1,5.01,0.00,22.3,20.7,00.0,31.3,23.9,10.5,0000.0,0029.47,0004.68,0001.15
2023-02-20 14:11:00,,0814.7,5.00,0.00,22.2,20.3,00.0,31.3,23.8,10.7,0000.0,0029.68,0004.76,0001.19
2023-02-20 14:12:00,,0814.9,5.01,0.00,22.2,20.1,00.0,31.2,23.6,10.7,0000.0,0029.81,0004.84,0001.23
2023-02-20 14:13:00,,0815.3,5.00,0.00,22.1,19.8,00.0,31.2,23.4,10.6,0000.0,0030.27,0004.90,0001.25
2023-02-20 14:14:00,,0816.2,4.99,0.00,22.0,19.5,00.0,31.2,23.3,10.9,0000.0,0029.66,0004.90,0001.25
2023-02-20 14:15:00,,0816.3,5.00,0.00,21.9,19.7,00.0,31.1,23.3,10.8,0000.0,0029.36,0004.95,0001.25
2023-02-20 14:16:00,,0815.3,5.01,0.00,22.0,21.0,00.0,31.0,23.7,10.6,0000.0,0028.27,0004.93,0001.25
2023-02-20 14:17:00,,0815.1,4.97,0.00,22.1,22.4,00.0,31.0,24.0,10.5,0000.0,0028.32,0004.96,0001.26
2023-02-20 14:18:00,,0815.1,4.98,0.00,22.2,22.9,00.0,31.0,24.2,10.5,0000.0,0024.07,0004.29,0001.18
2023-02-20 14:19:00,,0815.9,4.99,0.00,22.3,22.3,00.0,31.1,24.1,10.5,0000.0,0018.94,0003.65,0001.07
2023-02-20 14:20:00,,0815.8,5.03,0.00,22.3,21.9,00.0,31.1,24.0,10.4,0000.0,0015.58,0003.31,0001.01
2023-02-20 14:21:00,,0815.8,5.02,0.00,22.2,21.4,00.0,31.1,23.9,10.3,0000.0,0010.42,0002.52,0000.92
2023-02-20 14:22:00,,0815.2,5.00,0.00,22.2,21.0,00.0,31.2,23.8,10.3,0000.0,0009.58,0002.26,0000.89
2023-02-20 14:23:00,,0815.4,5.01,0.00,22.1,20.6,00.0,31.1,23.6,10.3,0000.0,0009.17,0002.18,0000.87
2023-02-20 14:24:00,,0815.7,4.99,0.00,22.1,20.3,00.0,31.1,23.5,10.5,0000.0,0009.07,0002.12,0000.87
2023-02-20 14:25:00,,0815.7,5.00,0.00,22.0,20.2,00.0,31.1,23.5,10.7,0000.0,0010.92,0002.22,0000.88
2023-02-20 14:26:00,,0815.7,5.01,0.00,22.0,20.0,00.0,31.1,23.5,10.5,0000.0,0018.41,0003.04,0000.93
2023-02-20 14:27:00,,0815.3,5.00,0.00,21.9,19.9,00.0,31.1,23.4,10.6,0000.0,0020.29,0003.18,0000.94
2023-02-20 14:28:00,,0816.1,4.99,0.00,21.9,19.9,00.0,31.0,23.4,10.6,0000.0,0020.85,0003.18,0000.95
2023-02-20 14:29:00,,0815.7,5.00,0.00,21.8,19.8,00.0,31.0,23.4,10.5,0000.0,0020.94,0003.20,0000.96
2023-02-20 14:30:00,,0816.1,5.00,0.00,21.8,19.8,00.0,31.0,23.3,10.4,0000.0,0021.39,0003.18,0000.95
2023-02-20 14:31:00,,0815.6,5.01,0.00,21.8,20.0,00.0,30.9,23.3,10.4,0000.0,0022.51,0003.16,0000.95
2023-02-20 14:32:00,,0815.1,4.98,0.00,21.9,21.3,00.0,30.9,23.7,10.5,0000.0,0021.34,0003.13,0000.95
2023-02-20 14:33:00,,0815.4,4.95,0.00,22.0,22.6,00.0,30.8,24.0,10.4,0000.0,0021.29,0003.15,0000.94
2023-02-20 14:34:00,,0815.3,5.04,0.00,22.2,22.9,00.0,30.9,24.2,10.6,0000.0,0021.57,0003.13,0000.94
2023-02-20 14:35:00,,0816.0,4.99,0.00,22.2,22.4,00.0,30.9,24.1,10.8,0000.0,0021.87,0003.17,0000.95
2023-02-20 14:36:00,,0816.5,5.01,0.00,22.2,21.9,00.0,31.0,24.0,10.8,0000.0,0021.06,0003.17,0000.96
2023-02-20 14:37:00,,0815.9,4.99,0.00,22.2,21.4,00.0,31.0,23.9,10.3,0000.0,0014.00,0002.41,0000.90
2023-02-20 14:38:00,,0815.6,4.99,0.00,22.1,21.0,00.0,31.0,23.7,10.2,0000.0,0011.38,0002.07,0000.88
2023-02-20 14:39:00,,0815.0,4.99,0.00,22.1,20.6,00.0,31.0,23.6,10.2,0000.0,0010.61,0001.99,0000.88
2023-02-20 14:40:00,,0815.6,4.99,0.00,22.0,20.4,00.0,31.0,23.5,10.4,0000.0,0010.43,0001.96,0000.88
2023-02-20 14:41:00,,0815.4,5.01,0.00,22.0,20.2,00.0,31.0,23.5,10.4,0000.0,0009.64,0001.92,0000.88
2023-02-20 14:42:00,,0815.7,5.01,0.00,21.9,20.1,00.0,31.0,23.4,10.3,0000.0,0008.12,0001.87,0000.89
2023-02-20 14:43:00,,0815.8,5.00,0.00,21.9,20.0,00.0,31.0,23.3,10.3,0000.0,0007.67,0001.86,0000.90
2023-02-20 14:44:00,,0816.3,5.00,0.00,21.8,20.0,00.0,30.9,23.3,10.4,0000.0,0007.54,0001.81,0000.91
2023-02-20 14:45:00,,0816.1,5.00,0.00,21.8,19.9,00.0,30.9,23.4,10.5,0000.0,0007.06,0001.77,0000.90
2023-02-20 14:46:00,,0815.5,4.99,0.00,21.8,19.8,00.0,30.9,23.3,10.5,0000.0,0005.96,0001.74,0000.90
2023-02-20 14:47:00,,0816.0,5.00,0.00,21.7,19.8,00.0,30.9,23.3,10.5,0000.0,0005.87,0001.74,0000.90
2023-02-20 14:48:00,,0815.9,5.01,0.00,21.7,19.8,00.0,30.8,23.3,10.5,0000.0,0004.70,0001.66,0000.91
2023-02-20 14:49:00,,0816.1,5.02,0.00,21.7,20.5,00.0,30.8,23.4,10.5,0000.0,0004.11,0001.69,0000.91
2023-02-20 14:50:00,,0816.1,4.99,0.00,21.8,21.9,00.0,30.7,23.8,10.6,0000.0,0003.89,0001.72,0000.92
2023-02-20 14:51:00,,0816.1,5.02,0.00,22.0,22.9,00.0,30.7,24.1,10.5,0000.0,0005.12,0001.70,0000.93
2023-02-20 14:52:00,,0816.3,5.01,0.00,22.1,22.6,00.0,30.8,24.0,10.4,0000.0,0005.22,0001.72,0000.95
2023-02-20 14:53:00,,0816.3,5.01,0.00,22.1,21.9,00.0,30.9,23.9,10.4,0000.0,0005.38,0001.77,0000.95
2023-02-20 14:54:00,,0815.8,5.00,0.00,22.1,21.4,00.0,30.9,23.8,10.4,0000.0,0005.74,0001.79,0000.96
2023-02-20 14:55:00,,0815.9,4.98,0.00,22.0,21.1,00.0,30.9,23.7,10.4,0000.0,0006.09,0001.78,0000.97
2023-02-20 14:56:00,,0816.4,5.00,0.00,22.0,20.9,00.0,30.9,23.6,10.5,0000.0,0006.10,0001.77,0000.97
2023-02-20 14:57:00,,0816.4,5.00,0.00,22.0,20.7,00.0,30.9,23.6,10.7,0000.0,0006.35,0001.73,0000.96
2023-02-20 14:58:00,,0817.1,5.00,0.00,22.0,20.5,00.0,30.9,23.6,10.8,0000.0,0006.90,0001.69,0000.95
2023-02-20 14:59:00,,0816.2,5.00,0.00,21.9,20.4,00.0,30.9,23.5,10.6,0000.0,0007.10,0001.73,0000.94
